ZHONGXING-1D

Last updated on Sun Jul 06 2025 00:02:46 GMT+0000 (Coordinated Universal Time)

1 49505U 21114A 25186.51923471 -.00000320 00000+0 00000+0 0 9990 2 49505 0.0648 243.0246 0001474 2.9667 354.8188 1.00274808 13359
UTC large
Height (km)
Speed (km/s)
/
Latitude / Longitude
Inclination (degrees)
Orbital Period (minutes)
Azimuth
Elevation
Range (km)
Doppler Factor

Next 0 passes for location: London (51.5072 / 0.1276)

Sorry there are no passes over London.